Simultaneous Nadir Overpasses (SNOs) Predictions

Prediction of SNOs between METOP-B and TERRA Satellite Orbit:

Table of predicted SNOs for the next 14.0 days since TLE Epoch: 8/7/2021
Index Date (METOP-B) Time (METOP-B) Lat,Lon (METOP-B) SZA (METOP-B ) Date (TERRA) Time (TERRA) Lat,Lon (TERRA) SZA (TERRA ) Distance(km) Time Diff (sec)
1 08/09/2021 01:45:46 -81.25, 18.09 112.15 08/09/2021 01:46:55 -81.26, 18.27 112.09 3.28 69
2 08/09/2021 02:36:25 81.26,-173.79 67.97 08/09/2021 02:36:21 81.26,-173.98 67.94 3.22 4
3 08/11/2021 21:20:08 -81.25, 84.45 111.32 08/11/2021 21:21:07 -81.24, 84.50 111.29 0.87 59
4 08/11/2021 22:10:48 81.25,-107.83 68.75 08/11/2021 22:10:33 81.25,-107.79 68.74 1.01 15
5 08/14/2021 16:54:30 -81.25, 151.17 110.41 08/14/2021 16:55:19 -81.25, 151.05 110.40 2.03 49
6 08/14/2021 17:45:10 81.26, -41.12 69.66 08/14/2021 17:44:45 81.25, -41.26 69.62 2.45 25
7 08/17/2021 12:28:53 -81.25,-142.50 109.52 08/17/2021 12:29:31 -81.26,-142.42 109.49 1.42 38
8 08/17/2021 13:19:33 81.26, 25.19 70.54 08/17/2021 13:18:57 81.26, 25.24 70.53 0.82 36
9 08/20/2021 08:03:15 -81.26, -75.80 108.55 08/20/2021 08:03:43 -81.26, -75.93 108.55 2.29 28



Historial Predications of SNOs between METOP-B and TERRA
